Aérodrome :
LOGIN :

S'inscrire | Disclaimer

   EN    FR    IT 

 










Légende :    VFR   VFR Marginal   IFR   IFR Intensif   IFR Très Intensif
Visi : 
Plafond : 
>= 8 km
>= 3000ft
5 à 8 km
1000 à 3000 ft
1500m à 5 km
500 à 1000 ft
800 à 1500m
200 à 500 ft
< 800m
< 200 ft
Symboles :   Orages  Brouillard  Fortes neiges  Fortes précipitations  Vent > 20 kt
SIGMETs :   Divers  Orages  Givrage  Turbulence  Onde Orograph.  Cendres Volcan.







- Altitude de l'aérodrome : 38 ft
- Code IATA : BOH
- Voir les cartes d'approche


EGHH - Bournemouth

DERNIER METAR :
  • 171120Z 20009KT 9999 BKN018 11/08 Q1015

METARs EXPIRÉS :
  • 171050Z 18006KT 9999 FEW015 SCT024 11/08 Q1014
  • 171020Z 20006KT 9999 FEW014 SCT023 11/08 Q1015
  • 170950Z 23006KT CAVOK 11/08 Q1014
  • 170920Z 17006KT CAVOK 10/07 Q1014

TAF TAF EGHH
Valide du 17 à 12h jusqu'au 17 à 21h UTC


171103Z 1712/1721 19008KT 9999 FEW020
TEMPO 1712/1716 21015G25KT
PROB30
TEMPO 1712/1721 7000 SHRA BKN009
ATIS : +44 1202 364 151
Météo : +44 1202 364 158 (TAF)
Pas de NOTAMs connus pour ce terrain.



MET'MAP, la Météo Aéronautique d'un coup d'oeil ! - Copyright ORBIFLY Décembre 2007 - Disclaimer

ORBIFLY MET'MAP TEAM :

Programmation & Développement : Alexandra Zaïnal
Conception & Développement : Baudouin d'Aumeries
Co-Programmation & Développement : Marc-Olivier Méhu
Soutien technique & logistique : Manuel Goepfert

Contact : metmap@orbifly.com




SOURCES & CREDITS :

   NOAA